[[{"header":{"parameterUnit":"m.s-1","parameterCategory":1,"la1":30.2991,"la2":30.254,"lo1":-89.0895,"lo2":-89.0444,"dy":0.0017,"dx":0.0017,"nx":28,"ny":28,"refTime":"2025-08-15T03:00:00:Z","depth":0,"parameterNumber":2,"parameterNumberName":"U-component_of_WINDS"},"data":[0,0,0,0,0,0,0,0,0,0,0,0,0,0,0,0,0,0,0,0,0,0,0,0,0,0,0,0,0,0,0,0,0,0,0,0,0,0,0,0,0,0,0,0,0,0,0,0,0,0,0,0,0,0,0,0,0,0,0.3068,0.3069,0,0.3115,0.3116,0.3116,0.3145,0.3146,0.3146,0.3146,0.3195,0.3196,0.3197,0,0,0,0,0,0,0,0,0,0,0,0,0,0.3006,0.3007,0.3068,0.3069,0.307,0.3115,0.3116,0.3116,0.3145,0.3146,0.3146,0.3146,0.3194,0.3195,0.3197,0,0,0,0,0,0,0,0,0,0,0,0,0,0.3041,0.3007,0.3068,0.309,0.3092,0.3115,0.3116,0.3117,0.3145,0.3146,0.3146,0.3146,0.3194,0.3195,0.3197,0.3203,0,0,0.3202,0.3203,0,0,0,0,0,0,0,0,0.3039,0.3043,0.3086,0.3088,0.3091,0.3125,0.3112,0.3146,0.3145,0.3125,0.3146,0.3146,0.3171,0.3175,0.3183,0.3205,0.3207,0.3202,0.3204,0.3204,0.3205,0,0,0,0,0,0,0,0.3036,0.3041,0.3087,0.3086,0.3089,0.3097,0.3103,0.3118,0.3146,0.3127,0.3129,0.3134,0.3173,0.3181,0.3184,0.3208,0.3202,0.3204,0.3205,0.3206,0.3239,0.3239,0,0,0,0,0,0,0.303,0.3039,0.3085,0.3088,0.3065,0.3098,0.3104,0.3114,0.3146,0.3151,0.3134,0.3135,0.3178,0.3182,0.3186,0.3196,0.3204,0.3206,0.3207,0.3239,0.3239,0.3239,0,0,0,0,0,0,0.3029,0.3034,0.3084,0.3064,0.3071,0.3099,0.311,0.3114,0.3123,0.3152,0.3157,0.3138,0.3179,0.3184,0.3199,0.3198,0.3207,0.3208,0.324,0.3239,0.3239,0.3215,0,0,0,0,0,0,0.3027,0.3034,0.3036,0.3064,0.3072,0.3095,0.3109,0.3115,0.3126,0.3128,0.3156,0.3161,0.3179,0.3196,0.3201,0.3201,0.321,0.324,0.3239,0.3239,0.3216,0.3214,0.3213,0,0,0,0,0,0.3025,0.3027,0.3035,0.3041,0.3075,0.3095,0.3099,0.312,0.3126,0.3128,0.3147,0.316,0.3198,0.3197,0.3203,0.3203,0.324,0.324,0.3239,0.3217,0.3215,0.3213,0,0,0,0,0,0,0.2997,0.3031,0.3041,0.3052,0.307,0.31,0.3103,0.3116,0.3133,0.3135,0.316,0.3166,0.3179,0.3193,0.3192,0.3212,0.322,0.3221,0.3202,0.32,0.3198,0.3194,0.3211,0,0,0,0,0,0.2992,0.3005,0.3034,0.3041,0.305,0.3075,0.3084,0.3099,0.3119,0.3126,0.3146,0.3165,0.3181,0.3191,0.3208,0.3219,0.3226,0.3222,0.322,0.3219,0.3219,0.3227,0.3226,0.3238,0.3238,0.3238,0,0,0.2983,0.3003,0.3009,0.3036,0.3052,0.3065,0.3081,0.3094,0.3104,0.3128,0.3144,0.3159,0.3182,0.3196,0.3203,0.3208,0.3217,0.3218,0.3217,0.3218,0.3226,0.3225,0.3224,0.3238,0.3238,0.3238,0,0,0.2972,0.2988,0.2996,0.3012,0.3036,0.3053,0.3055,0.3082,0.3093,0.3109,0.3128,0.3141,0.3168,0.3184,0.3196,0.3193,0.3206,0.3198,0.3188,0.3196,0.3195,0.3194,0.3193,0.3193,0.3198,0.3198,0.3198,0,0.2956,0.2976,0.2999,0.3011,0.3023,0.3046,0.3055,0.3069,0.3097,0.3105,0.311,0.3146,0.3163,0.3181,0.3181,0.3189,0.3193,0.3194,0.3193,0.3192,0.3192,0.3192,0.3192,0.3197,0.3197,0.3197,0.3197,0,0.2957,0.2971,0.2975,0.3002,0.3014,0.3025,0.3049,0.3059,0.3073,0.309,0.3107,0.3128,0.315,0.3155,0.3169,0.3176,0.3178,0.3188,0.3197,0.3189,0.319,0.319,0.3195,0.3195,0.3196,0.3196,0,0,0.2929,0.2969,0.297,0.2983,0.3011,0.3023,0.3035,0.3056,0.3065,0.3084,0.3096,0.3119,0.3128,0.3142,0.3157,0.3164,0.3161,0.3173,0.3174,0.3171,0.3172,0.3164,0.3164,0.3171,0.3171,0.3171,0.317,0,0.2922,0.2945,0.2966,0.2981,0.2995,0.3017,0.3028,0.3048,0.3064,0.3079,0.3097,0.3113,0.3124,0.3133,0.314,0.316,0.3162,0.316,0.3182,0.3183,0.3175,0.3164,0.3156,0.3153,0.317,0.317,0.317,0,0.2917,0.2935,0.2952,0.298,0.2987,0.2996,0.3018,0.3032,0.3055,0.3066,0.3082,0.3099,0.3114,0.3122,0.3144,0.3143,0.3153,0.3164,0.3165,0.3167,0.3176,0.3166,0.3153,0.3153,0.317,0.317,0.317,0,0.2895,0.2924,0.2938,0.2948,0.2982,0.2988,0.3003,0.3026,0.3038,0.3057,0.3066,0.3087,0.3098,0.3115,0.3137,0.3141,0.3157,0.3167,0.3168,0.3167,0.317,0.3169,0.3158,0.3176,0.3176,0.3176,0.3176,0,0.2885,0.2894,0.2929,0.2937,0.2949,0.2974,0.2985,0.3001,0.3022,0.3035,0.3056,0.3068,0.3097,0.3113,0.3131,0.3147,0.3152,0.3162,0.3167,0.316,0.3159,0.3167,0.3168,0.3176,0.3176,0.3176,0.3176,0,0.2862,0.2885,0.2902,0.2933,0.2941,0.2948,0.2975,0.2985,0.3003,0.302,0.3025,0.3053,0.3073,0.3098,0.3125,0.3137,0.3151,0.3158,0.3143,0.3146,0.3146,0.3145,0.3139,0.314,0.3157,0.3157,0.3157,0,0.2854,0.2862,0.2894,0.2904,0.2918,0.2934,0.2947,0.2972,0.2984,0.3012,0.3019,0.304,0.3058,0.3089,0.3113,0.3134,0.3142,0.3139,0.3145,0.3139,0.3143,0.3142,0.3143,0.3137,0.3136,0.3136,0.3136,0,0.2838,0.2849,0.2866,0.2888,0.2902,0.292,0.2939,0.2947,0.2976,0.2989,0.301,0.3024,0.3053,0.3074,0.3099,0.3115,0.313,0.3134,0.3135,0.3128,0.3119,0.3125,0.3139,0.3133,0.3134,0.3134,0.3134,0.3134,0.2822,0.2831,0.2855,0.2874,0.2891,0.2909,0.292,0.294,0.2957,0.2982,0.2996,0.3017,0.3041,0.3076,0.3092,0.3109,0.3114,0.3116,0.3117,0.3117,0.3115,0.3117,0.3113,0.3113,0.3114,0.3114,0.3114,0,0.2807,0.2824,0.2841,0.2868,0.2883,0.2897,0.2919,0.2931,0.2948,0.297,0.2988,0.3012,0.3033,0.3059,0.3082,0.3091,0.3099,0.3096,0.3096,0.31,0.3108,0.3105,0.309,0.309,0.309,0.309,0.309,0.309,0.2801,0.2816,0.2831,0.2856,0.2873,0.2893,0.2905,0.2922,0.2939,0.2965,0.2983,0.3,0.3024,0.3049,0.307,0.3077,0.3085,0.308,0.3089,0.3097,0.3099,0.3101,0.3098,0.3081,0.3081,0.3079,0.3079,0.3079]},{"header":{"parameterUnit":"m.s-1","parameterCategory":1,"la1":30.2991,"la2":30.254,"lo1":-89.0895,"lo2":-89.0444,"dy":0.0017,"dx":0.0017,"nx":28,"ny":28,"refTime":"2025-08-15T03:00:00:Z","depth":0,"parameterNumber":3,"parameterNumberName":"V-component_of_WINDS"},"data":[0,0,0,0,0,0,0,0,0,0,0,0,0,0,0,0,0,0,0,0,0,0,0,0,0,0,0,0,0,0,0,0,0,0,0,0,0,0,0,0,0,0,0,0,0,0,0,0,0,0,0,0,0,0,0,0,0,0,-1.8148,-1.8148,0,-1.8169,-1.8169,-1.8169,-1.8141,-1.814,-1.8139,-1.8138,-1.8158,-1.816,-1.8161,0,0,0,0,0,0,0,0,0,0,0,0,0,-1.8084,-1.8085,-1.8148,-1.8148,-1.8148,-1.8169,-1.8169,-1.8169,-1.8141,-1.814,-1.8139,-1.8137,-1.8158,-1.816,-1.8161,0,0,0,0,0,0,0,0,0,0,0,0,0,-1.8109,-1.8085,-1.8148,-1.8137,-1.8136,-1.8168,-1.8169,-1.8169,-1.8141,-1.814,-1.8138,-1.8137,-1.8157,-1.816,-1.8162,-1.8206,0,0,-1.8169,-1.817,0,0,0,0,0,0,0,0,-1.8107,-1.8111,-1.8138,-1.8137,-1.8137,-1.8151,-1.8154,-1.8181,-1.8142,-1.8139,-1.8138,-1.8136,-1.8157,-1.8159,-1.8166,-1.8207,-1.8208,-1.8169,-1.817,-1.8171,-1.8172,0,0,0,0,0,0,0,-1.8106,-1.811,-1.8156,-1.8138,-1.8138,-1.8131,-1.8133,-1.8159,-1.8156,-1.8139,-1.8137,-1.814,-1.8156,-1.8164,-1.8167,-1.8208,-1.8169,-1.8171,-1.8172,-1.8173,-1.8287,-1.8289,0,0,0,0,0,0,-1.8105,-1.8109,-1.8155,-1.8156,-1.8118,-1.8133,-1.8135,-1.8148,-1.8156,-1.8156,-1.8141,-1.8139,-1.8161,-1.8164,-1.8167,-1.8221,-1.8171,-1.8173,-1.8174,-1.8286,-1.8288,-1.829,0,0,0,0,0,0,-1.8104,-1.811,-1.8154,-1.8132,-1.8137,-1.8136,-1.815,-1.8149,-1.8157,-1.8158,-1.8157,-1.815,-1.816,-1.8164,-1.8197,-1.8221,-1.8174,-1.8176,-1.8284,-1.8286,-1.8289,-1.8327,0,0,0,0,0,0,-1.8102,-1.8109,-1.8126,-1.8133,-1.8139,-1.8184,-1.8151,-1.815,-1.8161,-1.8157,-1.8166,-1.8165,-1.8159,-1.8194,-1.8199,-1.8223,-1.8178,-1.8281,-1.8285,-1.8288,-1.8323,-1.833,-1.8336,0,0,0,0,0,-1.81,-1.8135,-1.8127,-1.8133,-1.8159,-1.8185,-1.8188,-1.8181,-1.8163,-1.818,-1.8181,-1.8165,-1.8217,-1.8197,-1.8203,-1.8228,-1.828,-1.8284,-1.8288,-1.8321,-1.8329,-1.8336,0,0,0,0,0,0,-1.813,-1.8136,-1.8127,-1.8165,-1.8175,-1.818,-1.8201,-1.819,-1.8205,-1.8201,-1.8191,-1.8193,-1.8228,-1.8231,-1.8209,-1.8272,-1.8246,-1.8251,-1.8269,-1.8277,-1.8283,-1.8282,-1.818,0,0,0,0,0,-1.8142,-1.8162,-1.8166,-1.82,-1.8205,-1.8203,-1.8213,-1.8207,-1.8217,-1.822,-1.8223,-1.8233,-1.8252,-1.8264,-1.8282,-1.8324,-1.8326,-1.8344,-1.835,-1.8356,-1.836,-1.8384,-1.8393,-1.8302,-1.8302,-1.8302,0,0,-1.8165,-1.8171,-1.8184,-1.8206,-1.8213,-1.8235,-1.8206,-1.823,-1.8246,-1.8224,-1.8255,-1.8258,-1.8269,-1.8307,-1.8323,-1.831,-1.8386,-1.836,-1.8365,-1.8366,-1.8389,-1.8397,-1.8405,-1.8305,-1.8304,-1.8304,0,0,-1.8219,-1.8225,-1.8254,-1.8262,-1.8273,-1.8272,-1.8279,-1.8286,-1.8288,-1.8319,-1.8303,-1.8322,-1.8354,-1.8363,-1.8371,-1.8431,-1.8417,-1.8436,-1.847,-1.8493,-1.8501,-1.8507,-1.8529,-1.8537,-1.8441,-1.8441,-1.8441,0,-1.8247,-1.8279,-1.8271,-1.8297,-1.8307,-1.8289,-1.8319,-1.8327,-1.8343,-1.835,-1.8335,-1.8377,-1.8382,-1.8423,-1.8437,-1.8444,-1.8453,-1.8435,-1.85,-1.8506,-1.8512,-1.8533,-1.8541,-1.8443,-1.8443,-1.8443,-1.8443,0,-1.8313,-1.8336,-1.8358,-1.8375,-1.8388,-1.8416,-1.8412,-1.8426,-1.8419,-1.8419,-1.8452,-1.8458,-1.8477,-1.8486,-1.8479,-1.8526,-1.8518,-1.8502,-1.8475,-1.8523,-1.8543,-1.8551,-1.8447,-1.8446,-1.8445,-1.8445,0,0,-1.8386,-1.8399,-1.8407,-1.8416,-1.8427,-1.8445,-1.8472,-1.8491,-1.8504,-1.8516,-1.8539,-1.8567,-1.8553,-1.8563,-1.8557,-1.8577,-1.8625,-1.8559,-1.8559,-1.8571,-1.8678,-1.8691,-1.87,-1.8616,-1.8618,-1.8619,-1.8678,0,-1.844,-1.8488,-1.8482,-1.8528,-1.8549,-1.8533,-1.8557,-1.8567,-1.8568,-1.8587,-1.8588,-1.8609,-1.8588,-1.8594,-1.8613,-1.8615,-1.8646,-1.861,-1.8638,-1.8639,-1.8636,-1.871,-1.8723,-1.8779,-1.8685,-1.8687,-1.8688,0,-1.851,-1.8526,-1.8574,-1.8584,-1.8593,-1.8614,-1.8632,-1.865,-1.8661,-1.8661,-1.8673,-1.8663,-1.8691,-1.8664,-1.8703,-1.8678,-1.8689,-1.8692,-1.8694,-1.8697,-1.8666,-1.8716,-1.8796,-1.8805,-1.8699,-1.8698,-1.8697,0,-1.856,-1.8593,-1.8626,-1.8633,-1.8645,-1.8661,-1.8667,-1.8677,-1.8689,-1.8705,-1.8713,-1.8731,-1.8741,-1.8756,-1.8752,-1.8732,-1.8792,-1.8764,-1.8793,-1.8793,-1.8806,-1.8805,-1.889,-1.8812,-1.8812,-1.8812,-1.8812,0,-1.8621,-1.8652,-1.8649,-1.8669,-1.8703,-1.8696,-1.873,-1.8734,-1.8743,-1.8764,-1.8751,-1.8771,-1.8765,-1.8785,-1.8782,-1.8815,-1.8819,-1.882,-1.8819,-1.8822,-1.8822,-1.8829,-1.8825,-1.8814,-1.8814,-1.8813,-1.8813,0,-1.8682,-1.8681,-1.8717,-1.8726,-1.8729,-1.8754,-1.8761,-1.8781,-1.8782,-1.8809,-1.8815,-1.8816,-1.8839,-1.8837,-1.8862,-1.886,-1.8902,-1.8896,-1.8898,-1.8897,-1.8926,-1.8924,-1.9019,-1.9031,-1.8945,-1.8946,-1.8946,0,-1.8722,-1.8745,-1.8757,-1.8771,-1.8778,-1.88,-1.8813,-1.8808,-1.8822,-1.8837,-1.8855,-1.8878,-1.8895,-1.8933,-1.8936,-1.8956,-1.895,-1.8982,-1.8953,-1.8956,-1.8952,-1.8951,-1.8954,-1.8988,-1.8989,-1.899,-1.8991,0,-1.8793,-1.8792,-1.8811,-1.8831,-1.8847,-1.8862,-1.8876,-1.8888,-1.8884,-1.8901,-1.8925,-1.8938,-1.8965,-1.8988,-1.9007,-1.9013,-1.9002,-1.9,-1.9008,-1.9011,-1.9012,-1.9013,-1.8915,-1.8998,-1.8997,-1.8996,-1.8996,-1.8996,-1.8845,-1.8865,-1.8877,-1.89,-1.891,-1.8924,-1.8943,-1.8947,-1.8967,-1.8989,-1.8984,-1.9012,-1.9024,-1.9048,-1.9056,-1.9078,-1.9066,-1.9077,-1.908,-1.9083,-1.9087,-1.9008,-1.9081,-1.9081,-1.9081,-1.9081,-1.908,0,-1.8916,-1.8923,-1.8944,-1.8964,-1.8982,-1.8971,-1.8986,-1.9002,-1.9026,-1.9039,-1.9057,-1.9085,-1.9107,-1.9112,-1.9133,-1.915,-1.9145,-1.9156,-1.9155,-1.9156,-1.9096,-1.9087,-1.9159,-1.9159,-1.9159,-1.9159,-1.9159,-1.9159,-1.8955,-1.8989,-1.899,-1.903,-1.9037,-1.9064,-1.9074,-1.9087,-1.9097,-1.9129,-1.9148,-1.9151,-1.9161,-1.9183,-1.9203,-1.9204,-1.9213,-1.9226,-1.9225,-1.9168,-1.916,-1.9153,-1.9145,-1.9228,-1.9228,-1.9284,-1.9284,-1.9285]}]]